User: anonymous   Login
Location: Hancock Field Station
(44.9202°N, 120.4259°W)
Time: 01:12:08
(UTC-08:00)
Language:

Cosmos 1707 - Orbit

View from above orbital plane
View from above orbital plane
View from above satellite
View from above satellite

Ground track
Ground track

The orbit data is extracted from the following two-line orbital elements,

1 16326U 85113A   15027.17757857  .00003057  00000-0  18566-3 0  1163
2 16326 082.5138 343.4475 0013906 072.0838 288.1907 15.10081427585567
Epoch (UTC): 27 January 2015 04:15:42
Eccentricity: 0.0013906
inclination: 82.5138°
perigee height: 526 km
apogee height: 545 km
right ascension of ascending node: 343.4475°
argument of perigee: 72.0838°
revolutions per day: 15.10081427
mean anomaly at epoch: 288.1907°
orbit number at epoch: 58556

The dashed part of the orbit path shows where the satellite is in the earth's shadow,  

DLR